STARLINK-35036

Last updated on Tue Sep 16 2025 00:02:07 GMT+0000 (Coordinated Universal Time)

1 65406U 25192C 25258.58341435 -.01476884 00000+0 -15564-1 0 9996 2 65406 53.1599 338.1386 0001268 69.1828 150.9303 15.66411760 3627
UTC large
Height (km)
Speed (km/s)
/
Latitude / Longitude
Inclination (degrees)
Orbital Period (minutes)
Azimuth
Elevation
Range (km)
Doppler Factor

Next 0 passes for location: London (51.5072 / 0.1276)

Sorry there are no passes over London.